FW6870 Weather Reports


time (UTC)temp
C
wind
direction
speed
KPH
gust
KPH
rain 1hr
cm
rain 24hr
cm
rain mn
cm
humidity
%
barometer
mb
20260506044526 20 244 8.0 14.5 0.00 0.00 0.00 59 1014.7
20260506043027 20 257 9.7 14.5 0.00 0.00 0.00 58 1014.8
20260506041526 20 245 9.7 19.3 0.00 0.00 0.00 57 1014.7
20260506040029 20 242 9.7 16.1 0.00 0.00 0.00 56 1014.7
20260506034530 20 232 9.7 19.3 0.00 0.00 0.00 56 1014.8
20260506033028 21 246 12.9 24.1 0.00 0.00 0.00 54 1014.7
20260506031536 21 228 14.5 20.9 0.00 0.00 0.00 55 1014.6
20260506030030 21 207 14.5 22.5 0.00 0.00 0.00 55 1014.7
20260506024538 21 222 12.9 19.3 0.00 0.00 0.00 55 1014.6
20260506023028 21 227 12.9 19.3 0.00 0.00 0.00 55 1014.7
20260506021528 21 223 11.3 19.3 0.00 0.00 0.00 54 1014.6
20260506020028 21 221 12.9 19.3 0.00 0.00 0.00 54 1014.3
20260506014528 22 216 12.9 20.9 0.00 0.00 0.00 54 1014.1
20260506013031 22 225 9.7 14.5 0.00 0.00 0.00 54 1014.3
20260506011557 22 227 8.0 11.3 0.00 0.00 0.00 54 1014.4
20260506010027 22 227 6.4 11.3 0.00 0.00 0.00 53 1014.4
20260506004528 22 223 9.7 16.1 0.00 0.00 0.00 52 1014.3
20260506003027 22 213 9.7 16.1 0.00 0.00 0.00 51 1014.3
20260506001529 22 225 8.0 12.9 0.00 0.00 0.00 51 1014.2
20260506000044 22 246 6.4 11.3 0.00 0.00 0.00 50 1014.3
20260505234538 23 215 8.0 14.5 0.00 0.00 0.00 49 1014.2
20260505233027 23 233 8.0 16.1 0.00 0.00 0.00 48 1014.2
20260505231530 23 231 6.4 22.5 0.00 0.00 0.00 47 1014.3
20260505230048 23 246 12.9 27.4 0.00 0.00 0.00 46 1014.1
20260505224537 24 223 12.9 24.1 0.00 0.00 0.00 45 1014.2
20260505223027 24 210 8.0 24.1 0.00 0.00 0.00 43 1014.1
20260505221526 25 224 12.9 25.7 0.00 0.00 0.00 42 1014.0
20260505220027 25 247 9.7 25.7 0.00 0.00 0.00 43 1014.0
20260505214531 25 222 9.7 29.0 0.00 0.00 0.00 42 1014.1
20260505213027 24 213 17.7 30.6 0.00 0.00 0.00 41 1014.2
20260505211532 24 203 16.1 30.6 0.00 0.00 0.00 42 1014.3
20260505210029 24 198 12.9 35.4 0.00 0.00 0.00 42 1014.4
20260505203028 24 218 9.7 25.7 0.00 0.00 0.00 43 1014.5
20260505201530 24 227 12.9 25.7 0.00 0.00 0.00 43 1014.7
20260505200026 24 215 14.5 22.5 0.00 0.00 0.00 44 1014.9
20260505194534 24 227 12.9 30.6 0.00 0.00 0.00 43 1015.1
20260505193026 24 262 9.7 27.4 0.00 0.00 0.00 43 1015.3
20260505191528 24 182 14.5 27.4 0.00 0.00 0.00 43 1015.5
20260505190036 23 193 11.3 27.4 0.00 0.00 0.00 41 1015.8
20260505184534 23 206 19.3 35.4 0.00 0.00 0.00 42 1016.0
20260505183031 23 248 16.1 22.5 0.00 0.00 0.00 45 1016.2
20260505181531 23 255 8.0 20.9 0.00 0.00 0.00 47 1016.2
20260505180040 22 252 11.3 30.6 0.00 0.00 0.00 46 1016.4
20260505174532 22 235 12.9 32.2 0.00 0.00 0.00 45 1016.7
20260505173030 22 214 14.5 35.4 0.00 0.00 0.00 45 1017.0
20260505171530 22 182 11.3 32.2 0.00 0.00 0.00 46 1017.1
20260505170028 22 202 14.5 27.4 0.00 0.00 0.00 49 1017.1
20260505164529 22 184 8.0 22.5 0.00 0.00 0.00 51 1017.1
20260505163028 22 217 4.8 17.7 0.00 0.00 0.00 53 1017.2
20260505161528 21 226 9.7 22.5 0.00 0.00 0.00 54 1017.4
20260505153031 20 223 6.4 14.5 0.00 0.00 0.00 59 1017.6
20260505151533 20 218 3.2 8.0 0.00 0.00 0.00 61 1017.8
20260505124541 14 256 4.8 11.3 0.00 0.00 0.00 72 1017.0
20260505123026 13 192 4.8 12.9 0.00 0.00 0.00 74 1017.1
20260505121554 13 207 4.8 14.5 0.00 0.00 0.00 73 1016.9
20260505120030 13 188 6.4 9.7 0.00 0.00 0.00 71 1016.6
20260505114528 13 209 3.2 8.0 0.00 0.00 0.00 71 1016.3
20260505113031 12 195 4.8 11.3 0.00 0.00 0.00 70 1016.2
20260505111535 12 197 8.0 11.3 0.00 0.00 0.00 69 1016.2
20260505093032 13 224 9.7 17.7 0.00 0.00 0.00 67 1016.0
20260505091534 13 229 9.7 19.3 0.00 0.00 0.00 67 1015.8
20260505090029 13 239 9.7 16.1 0.00 0.00 0.00 69 1015.8
20260505084526 13 263 8.0 16.1 0.00 0.00 0.00 70 1015.7
20260505083041 13 231 9.7 16.1 0.00 0.00 0.00 70 1015.8
20260505081531 14 244 11.3 17.7 0.00 0.00 0.00 66 1015.5
20260505080042 15 269 12.9 17.7 0.00 0.00 0.00 65 1015.4
20260505074529 15 273 11.3 14.5 0.00 0.00 0.00 65 1015.3
20260505073027 15 261 12.9 16.1 0.00 0.00 0.00 65 1015.3
20260505071537 15 277 9.7 14.5 0.00 0.00 0.00 65 1015.4
20260505070030 15 311 8.0 12.9 0.00 0.00 0.00 64 1015.4
20260505064530 15 288 8.0 16.1 0.00 0.00 0.00 64 1015.7
20260505063042 15 281 11.3 16.1 0.00 0.00 0.00 63 1015.6
20260505061533 15 263 12.9 17.7 0.00 0.00 0.00 62 1015.6
20260505060026 16 272 12.9 17.7 0.00 0.00 0.00 61 1015.8
20260505054538 16 258 11.3 16.1 0.00 0.00 0.00 60 1015.7
20260505053028 16 255 12.9 17.7 0.00 0.00 0.00 58 1015.8
20260505051537 17 240 11.3 19.3 0.00 0.00 0.00 56 1015.8